Regional Weather Roundup
Issued by NWS

Home | Current Version | Previous Version | Graphics & Text | Print | Product List | Glossary On
Versions: 1 2 3 4 5 6 7 8 9 10 11 12 13 14 15 16 17 18 19 20 21 22 23 24 25 26 27 28 29 30 31 32 33 34 35 36 37 38 39 40 41 42 43 44 45 46 47 48 49 50
955
ASUS45 KSLC 190010
RWRUT

UTAH REGIONAL WEATHER ROUNDUP
NATIONAL WEATHER SERVICE SALT LAKE CITY UT
500 PM MST SAT NOV 18 2017

UTZ001>011-023>025-190100-

NORTHERN UTAH

CITY           SKY/WX    TMP DP  RH WIND       PRES   REMARKS
BRIGHAM CITY   CLEAR     38  21  49 CALM      30.40F
HILL AFB       CLEAR     34  22  62 E6        30.37F WCI  29
LOGAN          CLEAR     38  20  48 CALM      30.39F
OGDEN          CLEAR     36  24  62 W5        30.37F WCI  32
SALT LAKE CITY CLEAR     40  25  55 N7        30.37F
TOOELE VALLEY  CLEAR     36  27  69 N5        30.39S WCI  32
WENDOVER       CLEAR     39  20  46 E7        30.37F WCI  34
HEBER CITY       N/A     32  23  69 CALM      30.34F
WEST JORDAN    CLEAR     38  20  48 CALM      30.38F

$$

UTZ011>015-024>027-190100-

CENTRAL/NORTHEAST UTAH

CITY           SKY/WX    TMP DP  RH WIND       PRES   REMARKS
PROVO AIRPORT  CLEAR     38  21  50 CALM      30.39F
MOAB/CANYONLAN CLEAR     43   0  16 CALM      30.36R
DELTA          CLEAR     37  14  38 CALM      30.36F
PRICE          CLEAR     37   7  28 S5        30.36S WCI  33
RICHFIELD      CLEAR     34  23  64 CALM      30.38S
ROOSEVELT      CLEAR     37   9  30 SE5       30.38R WCI  34
VERNAL         CLEAR     37   8  30 SE5       30.36S WCI  33

$$

UTZ013>016-019>022-027-190100-

SOUTHERN UTAH

CITY           SKY/WX    TMP DP  RH WIND       PRES   REMARKS
BRYCE CANYON   CLEAR     36   5  27 SE7       30.34R WCI  30
CEDAR CITY     CLEAR     42  16  34 CALM      30.30S
MILFORD        CLEAR     39  21  48 N9        30.33F WCI  33
ST GEORGE      CLEAR     57  10  15 CALM      30.26F
HANKSVILLE     CLEAR     43   5  21 NE3       30.39S
KANAB          CLEAR     46  10  23 NE6G13    30.34S
BLANDING         N/A     43   3  19 S5        30.40S

$$

REGIONAL REPORTS     COLORADO/ARIZONA

CITY           SKY/WX    TMP DP  RH WIND       PRES   REMARKS
CRAIG, CO      CLOUDY    25  16  68 E3        30.38S
GRAND JUNCTION CLEAR     40  16  37 E3        30.37F
RIFLE, CO      CLOUDY    34  21  59 S7        30.39S WCI  28
MONTROSE, CO   CLEAR     38  16  40 CALM      30.40R
CORTEZ, CO     CLEAR     41   6  23 W6        30.33R
COLORADO CITY    N/A     54  14  20 NE5       30.30S HAZE
PAGE, AZ       CLEAR     48  11  22 NW3       30.34R
GRAND CANYON   CLEAR     41  -1  17 NE9       30.32S
KINGMAN, AZ    CLEAR     56  13  18 N8        30.20S
FLAGSTAFF, AZ  CLEAR     40  -2  17 E8        30.31S WCI  34

$$

REGIONAL REPORTS    NEVADA/IDAHO/WYOMING

CITY           SKY/WX    TMP DP  RH WIND       PRES   REMARKS
LAS VEGAS, NV  CLEAR     60   9  13 N3        30.23S
ELY, NY        CLEAR     38  18  44 N9        30.30R WCI  31
ELKO, NV       CLEAR     37  21  52 E6        30.30F WCI  32
POCATELLO, ID  CLEAR     35  23  61 S10       30.36F WCI  27
BURLEY, ID     PTCLDY    38  22  52 E7        30.33S WCI  33
FORT BRIDGER,    N/A     21  15  75 W10       30.36  WCI  10
EVANSTON, WY   CLOUDY    20  17  88 SW6       30.33F WCI  12
ROCK SPRINGS,  CLOUDY    22  14  71 SW17      30.34R WCI   8

$$




USA.gov is the U.S. government's official web portal to all federal, state and local government web resources and services.